Lid_Strength_Index
12 12 12 12 11 12 12 12 12 11 10 10 10 10 10 10 10 11 11 11 12 12 12 12 12 12 13 12 12 12 12 12 11 16 13 14 14 15 15 16 16 17 16
12 12 12 12 12 12 12 12 12 12 12 11 11 11 11 11 11 11 12 12 12 12 12 13 13 13 13 13 13 13 13 12 12 16 16 16 15 15 16 17 18 17 17
13 12 12 12 11 12 12 12 13 12 12 11 11 11 11 12 12 11 11 12 12 12 12 13 13 13 14 13 13 13 13 15 13 14 17 17 16 15 16 17 17 17 17
12 11 12 12 12 12 12 13 13 12 12 12 12 12 11 11 12 12 12 13 13 13 12 13 13 14 14 14 14 13 14 14 14 14 17 18 18 17 17 18 18 17 17
12 12 12 12 12 13 13 13 14 14 13 12 12 12 12 12 12 12 13 13 13 14 13 13 13 13 13 12 13 14 14 14 15 15 16 18 19 19 19 17 17 17 17
12 12 12 13 13 13 13 14 14 14 14 12 11 12 13 13 11 11 11 13 13 14 14 14 14 14 14 12 11 11 12 14 15 16 16 17 18 18 18 18 17 17 19
11 11 12 13 14 14 14 14 15 15 14 13 13 12 12 12 11 11 11 12 13 13 13 14 14 14 14 14 12 12 11 11 11 14 15 16 17 17 17 17 17 17 17
11 11 11 12 12 13 14 14 15 15 15 15 14 12 13 13 11 12 11 11 12 12 12 13 13 13 14 15 15 14 14 14 13 13 14 14 15 16 16 16 17 16 16
11 12 12 11 12 13 14 14 14 15 15 15 14 15 15 14 11 11 12 12 12 12 11 12 13 13 12 12 15 15 15 15 13 12 12 12 13 14 14 16 18 18 19
11 11 11 11 12 13 13 13 13 14 14 14 15 14 14 15 12 11 11 12 12 13 12 12 12 13 12 11 14 15 16 15 16 15 15 14 14 14 14 15 17 19 18
12 12 13 13 14 14 14 14 15 15 15 16 16 16 15 14 14 11 10 11 12 12 12 12 12 11 11 12 12 14 15 14 14 15 16 16 16 16 16 16 16 16 18
15 16 16 17 17 17 17 17 17 18 18 19 18 18 16 15 13 11 9 9 9 10 12 11 11 10 10 11 12 13 13 13 16 16 17 18 17 17 17 16 16 16 16
19 20 20 20 19 19 20 20 20 19 20 20 19 19 18 16 14 12 10 9 8 9 9 9 9 9 10 11 11 12 14 14 16 17 18 17 17 16 16 18 18 18 18
21 21 21 21 21 21 20 20 21 21 21 20 20 20 19 17 16 14 12 10 10 10 9 9 9 8 11 12 13 12 13 14 15 16 16 16 16 18 19 19 21 20 21
22 22 22 22 22 22 21 22 21 20 20 21 21 20 20 19 17 14 13 14 11 10 11 10 10 11 13 13 13 13 13 14 15 15 16 18 18 19 20 20 21 22 22
23 23 23 24 23 23 23 23 19 18 17 16 16 16 17 15 13 12 12 11 11 10 10 11 12 12 13 14 14 14 14 15 15 16 17 19 20 20 21 21 21 22 22
25 25 25 24 24 24 23 23 24 21 17 17 16 16 15 14 13 13 12 11 10 9 10 11 12 12 14 13 13 14 16 16 17 18 19 19 20 21 22 22 21 22 22
24 24 24 23 22 22 22 21 21 22 22 21 18 17 15 14 14 13 12 10 12 11 10 11 12 12 13 13 13 13 15 18 18 19 19 19 20 21 22 22 22 23 23
24 24 23 22 22 21 20 19 20 20 20 20 20 18 17 15 14 12 11 12 11 9 9 10 11 12 12 13 15 15 16 17 18 19 20 20 21 21 22 22 22 22 22
23 23 22 22 21 20 20 19 19 19 19 19 19 19 17 16 16 13 11 10 10 9 9 10 11 11 14 15 16 17 17 18 19 20 21 21 21 21 23 23 23 24 24
23 22 22 21 21 21 20 19 18 17 18 19 18 17 13 13 12 11 10 10 7 9 11 12 12 13 14 16 17 18 19 19 20 21 21 21 21 22 21 21 22 22 22
22 22 22 22 21 21 20 19 19 19 17 17 17 15 13 16 15 14 14 13 12 12 12 13 13 14 15 16 18 19 20 21 21 21 22 22 22 21 21 21 21 22 22
21 22 22 22 21 21 21 20 20 20 20 20 19 19 19 19 19 18 18 17 17 17 16 15 16 17 17 17 18 19 20 20 20 21 22 22 22 22 22 22 22 22 22
22 22 22 22 21 21 21 22 21 21 21 21 21 21 21 20 20 20 19 18 18 18 18 18 17 17 17 17 17 18 18 19 19 19 20 21 21 21 21 21 21 21 21
23 23 23 23 22 22 22 21 22 22 22 22 22 22 21 21 21 21 20 20 20 20 20 20 19 19 19 20 20 19 18 19 20 20 20 20 21 21 21 21 21 21 21
22 23 23 23 23 22 22 22 22 21 22 22 22 21 21 22 21 21 21 21 21 21 21 21 21 21 21 21 21 20 20 20 21 21 21 21 22 22 22 23 23 23 23